Zurück zum Katalog

SL-12 DEB *

AktivHEO
NORAD 25800·DEBRIS·🇷🇺 Russia

Gestartet Dec 8, 1990 von Baikonur Cosmodrome

Loading…

Nächste Überflüge (nächste 24 Stunden)

TLE

AktuellSource: Space-Track

Epoche: Sep 8, 2026, 04:37 UTC

1 25800U 90110J   26251.19263748 -.00000076  00000-0  11109-3 0  9991
2 25800  65.0166 331.1063 5702468  19.5334   1.0624  4.20441614303921

Verfolge SL-12 DEB * in Echtzeit mit AllMySat

Download on the App Store